Date,TemperatureHighF,TemperatureAvgF,TemperatureLowF,DewpointHighF,DewpointAvgF,DewpointLowF,HumidityHigh,HumidityAvg,HumidityLow,PressureMaxIn,PressureMinIn,WindSpeedMaxMPH,WindSpeedAvgMPH,GustSpeedMaxMPH,PrecipitationSumIn
2013-1-1,44.7,41.5,35.2,42.8,39.5,32.5,94,93,90,30.20,30.03,11,1,11,0.99
2013-1-2,35.1,31.6,28.5,32.5,26.4,24.3,92,81,73,30.30,30.17,9,1,9,0.00
2013-1-3,44.7,33.7,26.2,26.2,23.6,19.4,88,69,38,30.46,30.27,8,0,8,0.00
2013-1-4,46.4,33.1,22.5,30.8,24.5,19.5,92,73,45,30.55,30.43,5,0,6,0.00
2013-1-5,49.1,36.7,24.3,35.6,28.7,21.5,92,74,50,30.46,30.30,7,0,7,0.00
2013-1-6,50.2,40.0,31.1,39.5,34.1,25.9,92,80,53,30.42,30.24,10,0,10,0.00
2013-1-7,49.6,34.8,24.9,31.0,26.2,21.6,89,73,45,30.49,30.28,9,0,9,0.00
2013-1-8,59.6,43.9,27.5,44.4,35.4,23.8,92,74,49,30.35,30.23,9,0,9,0.00
2013-1-9,55.6,53.3,50.1,53.9,50.7,44.4,94,91,77,30.39,30.26,10,0,10,0.87
2013-1-10,67.4,61.6,55.1,62.9,59.2,53.4,95,92,84,30.37,29.96,17,2,17,0.26
2013-1-11,70.8,64.0,58.1,63.7,59.1,55.8,93,85,62,30.09,29.96,11,0,11,0.28
2013-1-12,71.3,67.8,65.1,68.1,64.6,63.3,95,90,82,30.03,29.80,15,1,15,0.89
2013-1-13,68.8,55.9,34.8,64.4,52.3,31.0,95,88,83,30.27,29.81,19,2,19,2.17
2013-1-14,34.8,31.4,29.7,31.0,26.9,24.9,86,83,76,30.41,30.25,16,4,16,0.02
2013-1-15,33.0,31.2,30.7,31.2,27.7,26.7,93,87,85,30.28,30.04,5,4,5,0.00
2013-1-16,32.9,32.9,32.9,31.1,31.1,31.1,93,93,93,30.20,30.05,0,0,0,0.00
2013-1-17,47.6,36.9,32.9,37.8,32.9,31.1,93,86,64,30.49,30.08,16,1,16,0.00
2013-1-18,41.1,41.1,41.1,35.4,35.4,35.4,80,80,80,30.61,30.39,4,4,4,0.00
2013-1-19,57.7,48.3,41.1,37.0,35.7,34.0,80,63,43,30.40,30.21,11,2,11,0.00
2013-1-20,50.3,15.2,0.0,35.7,10.8,0.0,57,17,57,30.30,30.17,0,0,0,0.00
2013-1-21,44.0,20.2,0.0,21.0,9.0,0.0,40,18,38,30.35,30.17,11,2,11,0.00
2013-1-22,42.8,42.8,42.8,19.0,19.0,19.0,38,38,38,30.46,30.33,4,4,4,0.00
2013-1-23,42.8,42.8,42.8,19.0,19.0,19.0,38,38,38,30.37,30.19,4,4,4,0.00
2013-1-24,42.8,42.2,0.0,21.1,19.0,0.0,50,39,38,30.47,30.23,11,4,11,0.24
2013-1-25,50.3,39.7,33.3,46.8,33.6,18.8,91,80,47,30.29,30.05,11,1,13,0.22
2013-1-26,51.0,39.5,30.0,38.3,32.4,27.3,93,77,51,30.38,30.27,8,0,8,0.00
2013-1-27,56.4,46.5,38.9,44.2,37.6,32.0,83,71,58,30.34,30.21,13,0,13,0.00
2013-1-28,68.2,58.7,52.3,56.7,50.2,39.2,87,74,57,30.27,30.13,24,1,24,0.00
2013-1-29,72.1,64.7,56.8,64.4,60.0,53.0,93,85,73,30.14,29.57,25,1,25,0.00
2013-1-30,72.2,51.6,36.1,64.4,45.1,24.9,94,79,60,30.03,29.47,27,4,27,1.66
2013-1-31,51.9,40.0,30.0,34.5,28.1,23.6,83,64,40,30.33,30.03,18,2,18,0.00
2013-2-1,34.2,27.4,20.3,26.7,14.2,9.8,84,58,42,30.57,30.33,16,1,16,0.00
2013-2-2,47.7,35.4,24.5,35.3,26.9,14.8,85,71,60,30.38,30.15,8,0,10,0.04
2013-2-3,54.2,38.9,29.5,35.5,29.4,26.2,92,72,38,30.20,30.11,17,2,17,0.00
2013-2-4,56.2,40.1,30.6,41.1,31.9,26.7,89,75,42,30.16,29.96,10,0,10,0.02
2013-2-5,65.5,51.5,39.7,48.8,42.3,35.2,90,73,41,30.10,29.96,10,0,10,0.00
2013-2-6,63.0,48.7,33.5,43.3,37.4,30.6,93,68,43,30.25,30.09,8,0,8,0.00
2013-2-7,68.0,57.2,48.8,52.2,45.9,37.2,83,66,56,30.11,29.90,10,0,10,0.00
2013-2-8,53.8,45.3,36.1,49.8,39.4,30.0,92,80,66,30.35,29.90,15,2,15,0.21
2013-2-9,56.9,43.9,32.3,38.2,32.5,28.0,85,66,41,30.38,30.12,11,1,11,0.00
2013-2-10,59.2,53.3,50.0,57.6,44.1,35.8,95,72,54,30.14,29.83,20,1,20,1.12
2013-2-11,58.1,50.3,43.7,56.1,40.1,32.2,93,69,43,30.21,29.96,7,0,7,0.01
2013-2-12,52.1,46.0,38.2,40.7,37.8,34.1,90,74,51,30.20,29.80,11,1,13,0.04
2013-2-13,45.0,41.7,36.1,40.9,37.8,31.9,92,86,80,30.07,29.75,13,1,13,0.07
2013-2-14,63.2,45.9,32.0,42.6,35.1,29.5,93,69,36,30.11,30.02,12,0,12,0.01
2013-2-15,53.7,43.5,35.5,39.6,32.5,23.7,91,67,43,30.22,30.08,11,1,11,0.00
2013-2-16,42.2,33.7,24.9,24.8,19.3,14.2,76,57,37,30.29,30.19,18,2,18,0.00
2013-2-17,51.9,33.5,21.0,26.9,21.1,16.1,86,63,34,30.34,30.17,10,0,10,0.00
2013-2-18,62.6,51.3,41.2,47.5,38.0,26.3,92,62,43,30.20,29.85,17,2,17,0.90
2013-2-19,50.1,43.1,29.5,47.9,30.7,23.1,92,64,38,30.29,29.90,17,4,17,0.02
2013-2-20,37.0,32.5,27.6,24.0,19.6,16.3,85,59,46,30.39,30.24,11,1,11,0.00
2013-2-21,49.9,40.6,32.3,46.4,30.1,19.3,93,68,37,30.27,29.84,17,2,17,0.69
2013-2-22,59.0,49.6,40.7,48.7,44.2,36.2,94,82,60,30.10,29.89,8,0,8,0.01
2013-2-23,53.1,42.0,33.0,36.7,33.1,29.0,90,72,48,30.08,29.95,8,1,8,0.00
2013-2-24,60.4,40.8,29.6,35.7,29.5,26.2,89,67,31,30.16,29.98,11,1,11,0.00
2013-2-25,61.5,51.3,39.0,48.9,36.7,26.6,84,58,34,30.00,29.38,25,4,25,0.03
2013-2-26,51.4,46.0,40.7,49.5,41.0,34.0,93,83,65,29.82,29.39,25,2,25,0.34
2013-2-27,45.6,41.6,39.4,36.2,33.5,30.9,86,73,65,29.98,29.81,12,2,12,0.03
2013-2-28,39.7,37.6,33.2,35.4,29.0,27.0,85,71,62,30.13,29.95,14,2,14,0.00
2013-3-1,38.2,35.9,33.6,32.5,31.2,29.0,90,83,71,30.16,30.08,12,2,12,0.02
2013-3-2,33.6,32.5,30.7,31.0,27.6,24.0,90,82,75,30.25,30.11,13,2,13,0.00
2013-3-3,46.2,34.3,26.0,25.4,21.7,17.7,77,61,34,30.25,30.13,11,1,11,0.00
2013-3-4,65.8,49.7,30.6,46.8,32.6,22.7,79,54,34,30.16,29.83,15,1,15,0.00
2013-3-5,59.0,48.7,35.3,55.0,41.0,22.7,92,75,55,30.15,29.76,26,4,26,0.15
2013-3-6,41.7,36.2,28.8,29.1,25.7,22.5,83,65,58,30.35,30.14,19,3,19,0.00
2013-3-7,52.0,39.0,28.3,33.5,29.0,24.1,88,69,47,30.43,30.33,12,1,12,0.00
2013-3-8,65.3,46.2,29.7,35.3,29.5,25.5,86,56,25,30.44,30.26,9,0,9,0.00
2013-3-9,71.0,57.2,42.8,40.0,35.1,27.2,72,45,30,30.27,30.00,11,1,11,0.00
2013-3-10,72.8,61.3,54.9,56.2,47.5,38.9,93,63,42,30.03,29.77,16,1,16,1.50
2013-3-11,54.8,44.9,36.5,52.5,39.4,31.3,93,81,66,30.07,29.80,13,2,14,1.24
2013-3-12,55.7,41.7,28.7,34.2,29.9,25.9,92,66,36,30.22,30.05,12,1,12,0.00
2013-3-13,48.9,41.2,32.3,32.3,27.0,23.4,85,58,37,30.44,30.21,17,3,17,0.00
2013-3-14,57.8,41.8,24.2,33.3,26.7,20.9,89,59,33,30.48,30.24,7,0,7,0.00
2013-3-15,79.2,60.0,41.8,52.7,42.8,31.4,74,55,34,30.24,29.92,15,1,15,0.00
2013-3-16,79.3,65.6,55.9,56.8,50.3,44.9,78,59,43,29.94,29.84,16,1,16,0.00
2013-3-17,72.0,59.1,48.4,57.9,51.9,45.4,92,78,57,29.95,29.76,12,0,12,0.00
2013-3-18,66.0,59.0,46.0,60.7,53.6,42.0,92,82,68,30.04,29.70,12,1,12,1.05
2013-3-19,60.0,48.0,34.5,42.3,31.6,23.2,93,59,25,30.22,30.05,11,1,11,0.00
2013-3-20,56.4,45.9,35.3,35.2,29.0,20.5,86,53,34,30.24,30.07,21,3,24,0.00
2013-3-21,49.1,39.0,26.6,26.4,20.0,15.7,70,48,30,30.16,29.99,9,1,9,0.00
2013-3-22,51.2,43.9,39.3,41.9,32.3,22.5,86,64,45,30.05,29.95,10,1,10,0.00
2013-3-23,55.6,49.3,44.2,50.3,45.5,39.8,92,87,75,29.98,29.71,14,1,14,0.30
2013-3-24,54.4,48.2,37.5,53.0,43.7,26.9,95,85,64,29.89,29.54,29,3,29,0.40
2013-3-25,37.5,35.6,33.6,27.7,25.4,23.1,76,66,60,30.23,29.89,18,5,20,0.00
2013-3-26,42.3,37.0,32.6,29.9,27.5,25.4,80,69,56,30.40,30.22,13,2,13,0.00
2013-3-27,57.5,41.4,24.5,32.6,28.0,21.2,90,62,34,30.46,30.33,10,0,11,0.00
2013-3-28,65.5,48.9,31.5,37.4,33.3,27.7,89,59,31,30.41,30.28,5,0,6,0.00
2013-3-29,61.0,49.9,38.9,48.6,41.3,33.8,89,73,47,30.30,30.19,8,0,8,0.00
2013-3-30,61.4,53.3,46.4,54.6,49.9,44.5,94,89,66,30.23,29.97,7,0,7,0.30
2013-3-31,61.9,55.0,47.1,59.3,52.3,44.0,95,91,83,29.98,29.90,11,0,11,0.27
2013-4-1,67.9,53.6,40.3,50.8,42.8,37.9,94,70,42,30.16,29.95,11,1,11,0.01
2013-4-2,51.8,47.1,43.7,39.2,30.0,26.5,63,52,41,30.30,30.14,15,1,15,0.00
2013-4-3,54.7,48.9,42.5,31.5,27.2,22.6,62,43,32,30.27,30.15,16,2,16,0.00
2013-4-4,50.4,46.3,41.8,46.6,41.6,28.5,93,85,44,30.16,30.00,8,1,9,0.65
2013-4-5,68.3,54.6,44.4,46.5,42.2,36.4,94,68,32,30.18,30.06,10,1,10,0.02
2013-4-6,76.7,59.3,39.4,47.7,42.2,36.2,92,58,31,30.16,29.98,11,0,12,0.00
2013-4-7,75.5,62.9,55.2,55.4,48.5,42.4,77,60,45,30.09,29.98,11,0,11,0.00
2013-4-8,79.5,67.1,55.7,59.8,55.3,49.5,85,67,47,30.05,29.92,13,1,13,0.00
2013-4-9,80.2,70.4,62.9,66.9,62.4,56.4,85,76,61,30.08,29.95,11,0,11,0.00
2013-4-10,87.0,75.7,63.4,65.6,62.2,58.9,88,64,46,30.01,29.75,12,0,12,0.00
2013-4-11,75.3,62.2,47.2,63.8,57.5,43.4,94,86,64,29.81,29.59,15,2,15,2.35
2013-4-12,68.0,54.1,40.4,45.6,42.5,38.0,93,68,40,30.02,29.80,14,1,14,0.00
2013-4-13,72.3,57.2,42.9,47.9,42.6,37.4,90,61,33,30.14,29.98,9,0,9,0.00
2013-4-14,69.4,59.7,52.1,54.3,48.2,44.2,77,66,48,29.99,29.82,18,1,18,0.00
2013-4-15,81.5,68.8,56.5,63.0,58.1,51.4,88,70,50,29.99,29.88,12,1,12,0.00
2013-4-16,83.8,72.2,65.9,71.7,65.8,60.3,94,81,63,30.12,29.98,13,1,13,0.02
2013-4-17,88.6,75.8,65.2,71.1,66.7,62.5,94,75,51,30.13,29.92,10,0,10,0.00
2013-4-18,83.6,75.1,54.7,67.7,64.7,51.4,90,71,51,29.92,29.60,24,2,24,1.27
2013-4-19,54.2,46.7,39.0,51.2,38.0,33.4,90,73,52,30.18,29.74,15,2,15,0.23
2013-4-20,66.7,51.0,33.9,44.2,36.6,31.1,92,63,31,30.31,30.17,12,0,12,0.00
2013-4-21,72.1,53.8,40.6,44.8,39.2,34.3,89,62,27,30.39,30.21,16,1,16,0.00
2013-4-22,76.1,61.5,44.4,52.0,46.6,40.7,91,61,34,30.27,30.08,13,1,13,0.00
2013-4-23,76.2,65.6,54.5,61.6,55.4,48.4,86,70,57,30.12,29.95,13,1,13,0.00
2013-4-24,67.3,53.8,44.8,62.0,47.4,39.1,91,79,72,30.33,29.87,21,2,21,0.99
2013-4-25,68.3,51.9,36.3,44.0,38.9,33.9,93,65,32,30.43,30.30,8,0,8,0.00
2013-4-26,68.8,54.1,42.0,50.8,45.8,38.9,92,76,44,30.44,30.24,13,1,13,0.27
2013-4-27,69.3,59.8,52.4,65.0,57.0,49.8,94,91,84,30.30,29.91,10,1,10,0.44
2013-4-28,70.6,64.2,55.1,64.0,59.1,51.0,94,84,63,29.99,29.92,10,0,10,0.02
2013-4-29,77.7,63.2,50.1,59.2,53.8,47.6,94,74,45,30.05,29.91,6,0,6,0.00
2013-4-30,82.8,67.6,50.5,59.9,54.4,47.7,94,66,38,30.02,29.93,13,0,13,0.00
2013-5-1,80.3,70.2,61.9,65.3,59.6,54.5,83,70,52,30.09,29.98,13,1,13,0.00
2013-5-2,77.1,68.1,61.1,63.3,58.9,54.8,83,73,59,30.13,30.04,12,1,13,0.00
2013-5-3,73.3,60.3,43.0,62.3,53.4,40.6,92,79,63,30.04,29.80,22,2,22,1.37
2013-5-4,62.2,50.4,39.6,48.2,41.8,37.1,93,75,45,30.01,29.92,8,0,8,0.48
2013-5-5,63.4,51.4,46.4,50.6,45.8,43.0,92,82,58,29.95,29.86,10,0,13,0.00
2013-5-6,61.1,55.8,50.5,57.1,52.8,46.8,93,90,85,29.94,29.84,9,0,9,0.16
2013-5-7,74.0,63.0,55.4,59.6,55.6,52.8,93,78,53,30.03,29.93,8,0,8,0.00
2013-5-8,82.2,67.2,51.3,64.6,56.9,48.8,94,72,43,30.09,30.00,6,0,6,0.00
2013-5-9,84.1,70.8,57.5,66.4,61.0,54.6,93,73,50,30.11,29.98,9,0,9,0.00
2013-5-10,75.5,68.5,64.3,68.6,63.7,61.5,92,85,70,30.00,29.89,11,0,11,0.22
2013-5-11,73.1,65.2,57.9,62.8,57.2,53.0,94,77,56,30.09,29.92,10,1,10,0.01
2013-5-12,67.9,59.3,46.8,53.4,43.5,34.0,81,58,32,30.23,30.08,12,1,12,0.00
2013-5-13,75.3,58.6,39.4,51.0,44.2,36.2,92,63,31,30.31,30.15,8,0,8,0.00
2013-5-14,87.4,70.4,51.8,64.0,56.2,48.1,90,63,41,30.19,30.02,11,1,11,0.00
2013-5-15,86.9,74.2,59.5,60.7,56.7,53.7,85,57,36,30.14,29.97,9,0,9,0.00
2013-5-16,84.3,72.6,63.4,66.9,60.0,53.6,87,66,40,30.03,29.94,13,0,13,0.00
2013-5-17,73.6,68.4,65.5,70.1,65.4,60.6,94,90,77,30.01,29.91,9,0,9,0.98
2013-5-18,84.0,74.3,69.1,74.2,69.9,67.2,95,87,69,30.02,29.94,7,0,7,0.00
2013-5-19,88.6,76.9,70.6,73.9,70.7,68.2,95,82,57,30.01,29.92,9,0,9,0.00
2013-5-20,87.4,78.1,70.3,73.8,70.3,67.2,93,78,62,30.02,29.88,8,0,8,0.00
2013-5-21,82.5,73.1,66.2,74.9,68.6,63.7,93,86,69,30.01,29.80,19,0,19,0.49
2013-5-22,79.1,70.4,63.5,68.9,64.9,61.6,95,84,66,29.95,29.80,14,0,14,0.75
2013-5-23,82.9,71.7,61.4,64.0,60.8,56.5,94,71,48,30.10,29.91,14,1,14,0.12
2013-5-24,75.0,64.9,55.5,56.8,52.4,49.4,84,66,42,30.31,30.10,15,1,15,0.00
2013-5-25,79.5,64.6,48.3,58.1,52.5,45.3,93,68,41,30.34,30.17,6,0,6,0.00
2013-5-26,86.1,67.5,52.5,62.2,56.0,49.7,92,70,34,30.23,30.10,8,0,8,0.00
2013-5-27,87.0,73.4,59.6,68.8,63.2,56.0,92,72,50,30.15,30.00,11,0,11,0.00
2013-5-28,87.8,77.0,66.7,67.6,62.1,58.5,84,62,39,30.09,29.99,13,0,13,0.00
2013-5-29,87.6,77.2,64.2,74.9,66.3,60.0,93,71,45,30.10,29.97,14,0,14,0.13
2013-5-30,87.3,79.5,72.7,74.7,69.5,67.6,84,72,58,30.08,29.94,13,1,13,0.01
2013-5-31,85.4,78.7,74.6,74.4,70.5,67.1,86,76,68,30.04,29.90,13,1,13,0.02
2013-6-1,82.8,74.8,67.9,75.0,69.1,65.5,92,83,71,29.98,29.82,26,1,26,0.24
2013-6-2,82.7,71.4,66.7,70.6,66.0,61.4,95,84,59,29.95,29.89,8,0,8,0.01
2013-6-3,82.8,71.7,62.4,65.7,61.8,59.6,92,73,50,30.02,29.92,10,0,10,0.00
2013-6-4,85.8,73.2,58.6,67.6,62.2,55.9,93,71,46,30.04,29.93,7,0,7,0.00
2013-6-5,84.1,72.3,65.5,73.7,67.5,62.2,93,85,67,30.00,29.82,8,0,8,0.18
2013-6-6,85.0,74.7,67.3,73.0,68.1,64.3,92,81,59,29.85,29.74,9,0,9,0.00
2013-6-7,82.2,72.8,65.3,70.0,65.6,61.2,92,79,57,29.89,29.74,14,1,14,0.00
2013-6-8,85.3,72.0,57.8,67.0,61.1,55.2,94,72,42,30.01,29.88,8,0,8,0.00
2013-6-9,87.2,71.5,64.2,73.9,66.3,60.7,95,84,61,30.03,29.82,11,0,11,0.50
2013-6-10,89.4,78.2,69.0,73.7,70.2,67.0,94,78,54,29.95,29.86,13,1,13,0.03
2013-6-11,95.0,83.4,70.5,78.3,73.6,67.3,93,74,52,30.02,29.92,7,0,7,0.07
2013-6-12,95.9,84.8,72.9,79.0,74.6,70.1,94,73,52,30.06,29.91,10,0,10,0.02
2013-6-13,92.4,82.0,72.1,80.4,72.0,65.8,88,73,52,29.94,29.83,15,1,15,0.00
2013-6-14,84.8,77.2,63.6,65.8,62.0,58.5,91,62,45,30.04,29.92,13,1,13,0.00
2013-6-15,83.9,83.9,83.9,61.5,61.5,61.5,47,47,47,30.08,29.99,0,0,0,0.00
2013-6-16,90.2,55.1,0.0,75.3,44.5,0.0,88,40,47,30.07,29.95,6,0,6,0.00
2013-6-17,89.5,78.4,69.8,76.6,71.2,66.8,94,79,55,29.98,29.86,9,0,9,0.02
2013-6-18,83.8,74.7,69.7,70.7,68.6,66.5,95,82,60,29.97,29.81,10,0,10,2.59
2013-6-19,90.2,78.2,66.0,72.4,68.2,63.7,95,74,49,30.05,29.94,5,0,5,0.00
2013-6-20,92.6,80.3,67.2,74.2,70.4,64.7,95,74,47,30.13,30.04,6,0,6,0.00
2013-6-21,91.4,80.4,68.2,73.5,70.0,65.1,91,72,51,30.19,30.08,8,0,8,0.00
2013-6-22,90.4,80.0,67.9,72.7,69.2,64.9,93,71,50,30.17,30.03,9,0,9,0.00
2013-6-23,91.0,78.9,67.0,73.9,69.2,64.1,92,73,50,30.13,30.02,8,0,8,0.00
2013-6-24,91.0,79.7,70.6,79.0,72.8,67.9,93,81,58,30.15,30.02,19,0,19,0.49
2013-6-25,92.7,81.5,72.0,77.2,73.6,69.9,94,79,56,30.10,29.94,7,0,7,0.00
2013-6-26,92.5,83.0,72.7,77.3,73.5,69.9,94,74,55,30.00,29.84,5,0,9,0.00
2013-6-27,97.0,86.4,76.9,79.2,74.5,71.6,87,70,45,29.90,29.80,7,1,10,0.00
2013-6-28,88.7,78.5,71.9,76.4,72.2,68.8,93,82,62,29.86,29.68,16,0,16,0.20
2013-6-29,89.5,78.8,66.8,71.7,65.6,60.1,94,67,38,29.73,29.65,16,1,16,0.01
2013-6-30,84.3,73.5,62.2,68.1,63.3,59.1,93,72,53,29.81,29.69,8,1,10,0.00
2013-7-1,79.8,68.3,64.7,68.8,63.6,61.6,94,85,62,29.92,29.78,5,0,7,0.00
2013-7-2,84.0,72.7,62.9,67.1,63.9,60.3,94,76,51,30.02,29.89,8,0,8,0.00
2013-7-3,87.7,73.6,61.6,69.9,64.4,59.3,94,75,45,30.09,30.00,5,0,5,0.00
2013-7-4,83.4,73.8,68.9,72.7,68.5,65.0,92,84,67,30.06,29.98,11,0,11,0.00
2013-7-5,85.6,73.9,67.1,73.5,69.5,64.6,94,87,64,30.08,30.01,11,0,11,0.44
2013-7-6,85.8,76.3,69.1,73.6,70.0,67.3,95,82,61,30.10,29.99,9,0,9,0.29
2013-7-7,89.9,76.7,68.8,75.5,70.3,66.4,94,82,57,30.12,30.02,8,0,8,0.00
2013-7-8,91.4,80.6,69.9,76.7,72.4,67.5,94,77,58,30.15,30.06,8,0,8,0.00
2013-7-9,94.5,83.4,71.1,78.5,74.1,68.8,95,75,54,30.14,30.00,7,0,7,0.00
2013-7-10,96.5,83.6,74.7,80.4,75.3,71.8,93,77,51,30.05,29.88,8,0,8,0.16
2013-7-11,94.5,82.4,72.7,79.0,72.9,65.9,95,75,49,29.95,29.87,9,0,11,0.01
2013-7-12,88.5,77.2,65.8,69.9,64.5,61.1,87,66,45,30.00,29.93,14,1,14,0.00
2013-7-13,89.5,77.3,62.4,67.2,64.2,60.0,93,66,42,30.03,29.94,10,1,10,0.00
2013-7-14,85.2,74.8,71.2,74.7,69.6,65.8,94,84,64,30.11,29.98,14,0,14,1.33
2013-7-15,89.5,80.2,72.6,76.4,72.5,70.8,94,79,59,30.22,30.10,13,1,13,0.01
2013-7-16,92.6,82.5,72.6,76.1,72.8,69.4,92,74,53,30.28,30.20,8,0,8,0.00
2013-7-17,95.0,85.3,72.3,78.6,74.7,70.1,93,72,51,30.29,30.14,7,0,8,0.00
2013-7-18,93.2,81.5,74.3,78.3,74.5,71.1,94,81,54,30.17,30.02,8,0,8,0.00
2013-7-19,92.3,80.6,71.3,77.5,73.0,69.5,95,79,54,30.08,29.93,8,0,8,0.05
2013-7-20,92.8,81.9,71.0,76.8,72.5,68.6,95,75,51,29.98,29.85,9,0,9,0.01
2013-7-21,92.8,78.8,73.4,77.5,73.1,69.3,94,83,55,29.97,29.88,12,0,12,0.13
2013-7-22,79.5,74.2,69.3,74.2,71.0,67.1,94,90,83,29.98,29.87,14,0,16,0.93
2013-7-23,83.2,77.3,72.5,74.4,72.1,70.0,95,85,68,29.95,29.83,10,0,10,0.00
2013-7-24,84.7,78.2,72.8,75.9,72.4,67.1,95,83,67,29.94,29.83,6,0,6,0.03
2013-7-25,85.2,75.4,65.0,68.0,65.3,62.1,92,72,51,30.05,29.93,10,0,10,0.00
2013-7-26,86.7,74.7,62.6,70.6,66.0,60.1,94,76,53,30.07,29.95,5,0,5,0.00
2013-7-27,87.4,77.3,69.8,71.6,68.2,66.5,91,75,51,29.99,29.88,6,0,6,0.00
2013-7-28,81.7,72.4,65.6,66.9,63.7,58.6,90,75,52,30.08,29.94,10,0,10,0.00
2013-7-29,86.8,74.1,63.1,67.5,62.7,59.2,89,70,45,30.17,30.06,6,0,7,0.00
2013-7-30,88.7,74.9,63.8,75.9,68.5,60.2,94,81,61,30.17,30.03,11,0,11,0.80
2013-7-31,87.8,76.3,70.3,80.2,72.7,67.5,95,89,70,30.05,29.91,8,0,11,0.79
2013-8-1,87.4,77.2,69.6,75.7,70.1,65.8,96,80,56,30.03,29.95,10,0,12,0.01
2013-8-2,88.8,76.7,63.9,70.5,66.7,61.5,95,74,45,30.04,29.96,1,0,1,0.00
2013-8-3,79.7,74.8,70.4,75.8,71.5,67.4,94,90,84,30.07,29.95,11,0,11,0.35
2013-8-4,89.3,76.9,70.1,76.0,70.9,68.0,96,83,59,30.10,30.03,8,0,8,0.00
2013-8-5,81.5,74.9,69.9,73.0,68.7,64.8,91,81,61,30.08,29.93,1,0,1,0.01
2013-8-6,82.3,75.6,72.5,77.5,72.7,69.9,95,91,78,30.01,29.89,9,0,9,1.04
2013-8-7,92.3,81.5,72.8,80.4,75.2,70.9,95,82,63,29.96,29.87,7,0,7,0.00
2013-8-8,95.5,82.9,74.1,81.1,75.5,71.7,94,79,55,29.96,29.88,8,0,10,0.00
2013-8-9,93.5,79.0,73.5,82.0,73.9,70.8,93,85,61,30.04,29.92,20,0,21,0.57
2013-8-10,89.0,79.7,71.3,78.3,73.9,69.5,95,83,66,30.11,30.01,8,0,8,0.01
2013-8-11,89.7,78.7,73.5,79.7,74.1,71.1,95,86,65,30.12,30.04,13,0,13,0.00
2013-8-12,91.5,79.0,71.0,80.0,73.9,68.2,95,85,65,30.08,29.91,19,0,19,2.78
2013-8-13,86.9,77.1,69.8,75.9,71.7,68.2,96,84,63,30.00,29.90,8,0,8,0.01
2013-8-14,80.2,72.3,63.0,69.0,62.6,57.7,87,73,55,30.07,29.96,11,1,11,0.00
2013-8-15,83.3,71.5,56.9,67.4,62.4,54.3,91,74,54,30.07,29.97,8,0,8,0.00
2013-8-16,79.5,71.8,66.2,69.7,66.0,63.1,92,82,68,30.08,29.99,7,0,7,0.00
2013-8-17,76.4,70.7,65.0,68.6,65.9,62.1,92,85,75,30.10,30.03,8,0,8,0.01
2013-8-18,84.4,70.8,64.5,71.6,65.7,61.9,94,85,58,30.14,30.05,7,0,7,1.59
2013-8-19,86.3,71.1,66.1,73.2,67.7,64.1,95,89,63,30.11,30.01,8,0,8,0.01
2013-8-20,88.3,77.2,68.4,76.4,71.5,66.3,95,83,63,30.11,30.01,5,0,5,0.03
2013-8-21,88.3,78.6,70.7,77.6,72.7,68.4,95,83,65,30.15,30.06,7,0,7,0.00
2013-8-22,92.5,80.6,70.4,79.2,73.1,68.3,94,79,58,30.14,30.01,9,0,9,0.00
2013-8-23,91.8,83.0,72.0,77.3,74.0,69.6,94,76,54,30.08,29.97,8,0,8,0.00
2013-8-24,92.2,80.8,71.9,77.4,72.4,69.4,93,77,53,30.16,30.04,7,0,7,0.00
2013-8-25,88.8,77.6,71.8,74.7,70.8,67.6,92,81,60,30.28,30.15,10,0,10,0.00
2013-8-26,88.3,76.4,65.7,73.4,67.6,63.3,93,76,52,30.28,30.13,4,0,4,0.00
2013-8-27,89.2,76.5,63.2,74.4,67.3,60.6,94,75,50,30.16,30.04,3,0,4,0.00
2013-8-28,88.1,74.4,66.0,74.1,68.7,63.6,94,83,54,30.09,30.00,2,0,3,0.00
2013-8-29,93.5,80.5,67.8,76.8,71.8,65.3,94,77,51,30.06,29.95,10,0,10,0.00
2013-8-30,94.8,82.2,70.9,77.6,73.2,68.5,94,76,52,30.00,29.88,5,0,6,0.00
2013-8-31,95.9,85.6,74.8,76.9,74.2,71.7,91,71,49,29.93,29.81,1,0,5,0.07
2013-9-1,77.0,73.2,69.6,74.1,70.9,67.4,95,92,82,29.99,29.81,12,0,13,1.29
2013-9-2,84.8,75.0,71.0,79.9,72.1,69.2,96,91,71,29.93,29.83,10,0,10,0.51
2013-9-3,87.2,76.3,67.6,73.1,68.3,64.2,95,78,52,30.02,29.90,7,0,7,0.00
2013-9-4,86.0,74.3,63.0,71.8,65.7,61.0,95,76,51,30.12,30.00,7,0,7,0.01
2013-9-5,86.9,74.4,62.9,71.2,65.5,60.5,95,76,49,30.17,30.09,8,0,8,0.00
2013-9-6,88.2,75.6,63.5,73.0,67.7,61.4,94,78,54,30.15,30.03,4,0,4,0.01
2013-9-7,90.7,71.6,63.4,75.6,66.3,61.1,94,85,51,30.09,29.97,6,0,6,0.00
2013-9-8,92.2,77.3,66.3,76.1,70.0,63.9,95,80,50,30.01,29.90,4,0,4,0.00
2013-9-9,91.8,79.5,72.8,78.3,73.1,69.7,93,82,57,30.06,29.95,6,0,6,0.04
2013-9-10,92.4,79.2,71.2,78.3,72.8,68.8,94,82,57,30.14,30.04,13,0,13,0.00
2013-9-11,91.1,81.9,73.2,75.2,72.6,70.1,92,75,52,30.18,30.07,3,0,4,0.00
2013-9-12,92.8,79.0,69.2,77.8,71.0,66.8,94,79,51,30.07,29.92,6,0,6,0.03
2013-9-13,81.3,73.3,62.0,70.0,61.1,54.3,94,68,44,30.01,29.93,14,1,14,0.01
2013-9-14,76.7,63.5,52.8,56.5,52.8,50.0,92,70,45,30.10,30.01,10,1,13,0.00
2013-9-15,83.7,64.5,50.9,63.6,55.9,48.7,94,77,42,30.12,30.05,6,0,6,0.00
2013-9-16,87.5,71.5,56.9,67.2,61.2,54.3,94,73,40,30.16,30.08,6,0,6,0.00
2013-9-17,88.6,76.3,66.4,71.3,66.8,64.0,93,74,48,30.16,30.04,6,0,6,0.00
2013-9-18,82.3,74.4,68.3,72.0,68.5,65.2,91,82,69,30.15,30.05,8,0,8,0.00
2013-9-19,88.8,77.0,66.6,72.5,67.8,64.2,94,75,52,30.13,29.98,7,0,7,0.00
2013-9-20,86.4,75.4,66.2,74.5,68.7,63.2,94,81,61,30.00,29.80,4,0,7,4.17
2013-9-21,75.6,68.0,57.5,62.4,58.4,54.0,94,72,55,29.88,29.82,8,1,11,1.39
2013-9-22,78.0,62.5,52.7,59.0,54.5,50.5,94,77,46,29.95,29.86,12,0,12,0.01
2013-9-23,82.7,67.1,52.9,64.6,58.4,50.6,93,76,50,29.99,29.90,7,0,7,0.00
2013-9-24,74.2,68.5,59.5,69.1,65.1,57.2,95,89,83,29.96,29.82,8,0,8,0.00
2013-9-25,84.2,73.6,67.2,70.8,67.6,64.2,95,83,57,29.85,29.77,5,0,5,0.06
2013-9-26,84.0,71.1,62.7,70.1,65.1,60.7,95,83,60,30.00,29.85,8,0,8,0.00
2013-9-27,85.9,71.2,59.2,69.7,63.9,57.1,95,79,51,30.11,30.00,5,0,5,0.01
2013-9-28,81.4,68.7,58.1,63.1,59.7,55.8,93,75,48,30.17,30.05,10,0,10,0.00
2013-9-29,72.5,64.4,59.3,64.9,59.9,56.4,93,86,68,30.09,29.98,8,0,8,0.03
2013-9-30,71.7,66.1,63.3,65.8,63.0,60.9,95,90,79,30.04,29.96,10,0,10,0.80
2013-10-1,82.4,71.2,62.6,72.5,66.2,60.8,96,85,70,30.10,30.00,7,0,7,0.00
2013-10-2,84.7,76.6,68.0,72.6,70.0,66.2,95,81,62,30.12,30.03,6,0,6,0.00
2013-10-3,84.7,74.6,66.3,71.3,67.6,63.9,94,80,57,30.08,29.98,10,0,10,0.00
2013-10-4,85.8,74.7,66.3,73.2,68.7,63.8,94,83,62,30.09,30.00,8,0,8,0.00
2013-10-5,88.3,76.9,67.9,74.7,70.0,65.7,94,80,59,30.04,29.87,8,0,8,0.00
2013-10-6,75.5,66.7,54.5,70.7,61.7,50.9,92,84,65,29.98,29.84,10,0,10,0.25
2013-10-7,69.3,57.7,45.9,54.0,49.8,43.1,93,76,56,30.12,29.97,9,0,9,0.00
2013-10-8,74.8,60.4,47.8,56.4,51.4,45.5,96,74,49,30.14,30.06,9,0,11,0.00
2013-10-9,76.8,65.2,53.6,66.0,59.3,51.1,95,82,66,30.17,30.08,10,0,10,0.00
2013-10-10,81.3,67.7,59.0,68.4,61.2,57.1,95,81,52,30.16,30.02,5,0,5,0.01
2013-10-11,82.3,67.0,55.1,66.3,60.0,52.8,94,80,49,30.09,29.98,5,0,5,0.00
2013-10-12,81.4,67.0,53.9,70.0,62.1,51.7,94,85,62,30.12,30.01,11,0,11,0.08
2013-10-13,81.5,68.6,63.3,69.3,63.9,61.4,96,86,60,30.25,30.12,10,0,10,0.01
2013-10-14,82.9,68.8,56.6,67.1,61.5,53.8,92,79,51,30.23,30.07,8,0,8,0.00
2013-10-15,77.1,69.0,63.8,66.8,63.9,61.1,94,84,66,30.09,29.97,10,0,10,0.16
2013-10-16,66.6,63.8,60.0,64.8,62.1,58.2,95,94,93,29.99,29.92,7,0,7,1.32
2013-10-17,66.8,59.1,51.6,58.2,55.1,48.7,94,87,64,30.03,29.92,6,0,6,0.12
2013-10-18,69.3,53.7,47.3,55.6,49.2,45.6,95,86,52,30.11,29.96,7,0,7,0.01
2013-10-19,56.3,52.1,41.3,53.2,48.2,38.2,94,87,71,30.10,29.92,11,0,11,0.02
2013-10-20,66.3,47.2,35.5,46.7,39.9,33.1,94,78,39,30.15,30.03,6,0,6,0.01
2013-10-21,71.3,54.4,37.5,54.1,46.2,35.1,94,76,45,30.12,30.00,10,0,10,0.00
2013-10-22,65.9,55.8,47.9,52.5,49.1,44.6,91,80,51,30.07,29.91,7,0,7,0.01
2013-10-23,57.2,50.0,40.3,47.3,41.4,36.8,92,73,51,30.16,29.92,11,1,11,0.00
2013-10-24,62.7,49.1,40.0,48.0,41.4,33.5,93,76,54,30.39,30.14,10,0,10,0.00
2013-10-25,53.4,41.1,31.8,34.7,31.9,28.9,91,72,43,30.55,30.37,9,0,9,0.00
2013-10-26,63.2,47.4,30.1,49.1,38.0,27.1,92,72,43,30.37,30.13,11,0,11,0.01
2013-10-27,70.9,58.5,53.3,59.4,52.7,47.6,90,81,65,30.14,30.05,7,0,7,0.01
2013-10-28,69.3,60.5,53.3,58.9,56.3,50.7,94,87,68,30.25,30.08,7,0,7,0.04
2013-10-29,74.7,62.5,51.3,66.3,58.3,49.1,95,87,71,30.28,30.15,3,0,9,0.00
2013-10-30,78.0,67.4,59.4,66.8,61.0,57.1,94,80,62,30.22,30.03,8,0,8,0.00
2013-10-31,69.6,67.4,63.5,66.9,64.3,60.0,95,90,77,30.03,29.59,15,2,17,1.08
2013-11-1,68.7,68.7,68.7,66.0,66.0,66.0,91,91,91,29.90,29.72,4,4,4,0.00
2013-11-2,68.7,68.7,68.7,66.0,66.0,66.0,91,91,91,30.21,29.88,4,4,4,0.00
2013-11-3,68.7,22.4,0.0,66.0,21.5,0.0,91,30,91,30.34,30.19,4,1,4,0.00
2013-11-4,0.0,0.0,0.0,0.0,0.0,0.0,0,0,100,30.35,30.24,0,0,0,0.00
2013-11-5,0.0,0.0,0.0,0.0,0.0,0.0,0,0,100,30.37,30.22,0,0,0,0.00
2013-11-6,0.0,0.0,0.0,0.0,0.0,0.0,0,0,100,30.22,30.04,0,0,0,0.00
2013-11-7,0.0,0.0,0.0,0.0,0.0,0.0,0,0,100,30.39,30.18,0,0,0,0.00
2013-11-8,0.0,0.0,0.0,0.0,0.0,0.0,0,0,100,30.41,30.25,0,0,0,0.00
2013-11-9,0.0,0.0,0.0,0.0,0.0,0.0,0,0,100,30.32,30.21,0,0,0,0.00
2013-11-10,61.4,3.7,0.0,39.0,2.7,0.0,78,4,44,30.37,30.27,1,0,1,0.00
2013-11-11,70.3,51.6,33.9,45.5,39.1,31.0,93,66,33,30.34,30.17,4,0,4,0.00
2013-11-12,53.9,42.4,31.1,46.1,30.9,21.2,88,65,41,30.66,30.21,22,2,22,0.00
2013-11-13,48.7,35.3,26.3,26.8,23.0,20.9,85,63,34,30.75,30.48,10,0,10,0.00
2013-11-14,57.9,38.7,22.0,33.7,24.5,18.4,90,62,28,30.48,30.21,11,0,11,0.00
2013-11-15,57.1,47.7,34.8,51.7,43.2,27.4,91,84,74,30.23,30.08,8,0,8,0.02
2013-11-16,65.8,60.2,54.3,62.1,57.7,51.6,95,92,87,30.11,29.95,11,0,11,0.01
2013-11-17,70.7,66.0,55.6,68.5,63.0,52.6,94,90,78,29.98,29.76,17,1,17,0.55
2013-11-18,64.1,53.2,42.2,52.6,40.9,30.8,94,66,42,30.27,29.98,12,1,12,0.01
2013-11-19,51.4,44.2,36.2,32.1,29.9,27.7,77,58,40,30.31,30.19,15,1,15,0.00
2013-11-20,63.8,47.7,30.2,40.3,34.2,27.2,91,63,37,30.24,30.13,12,0,12,0.00
2013-11-21,69.0,58.3,49.4,56.9,50.2,39.9,92,75,60,30.28,30.16,10,0,10,0.20
2013-11-22,61.2,55.8,46.7,59.8,53.5,42.1,95,92,84,30.38,30.19,14,1,14,0.78
2013-11-23,48.2,42.3,29.5,42.3,32.8,18.7,92,70,45,30.57,30.33,17,2,17,0.00
2013-11-24,38.1,29.4,22.4,19.2,16.8,14.0,70,60,40,30.68,30.48,16,2,16,0.00
2013-11-25,41.3,34.8,29.5,34.0,26.2,16.4,92,72,44,30.48,30.18,7,0,7,0.40
2013-11-26,39.3,37.3,35.2,36.8,34.4,28.6,94,89,72,30.18,29.93,15,2,15,0.45
2013-11-27,36.8,29.3,21.3,29.0,17.1,14.2,75,60,47,30.42,30.06,19,3,19,0.00
2013-11-28,44.7,29.6,16.4,22.6,18.3,12.9,92,66,37,30.54,30.42,6,0,6,0.00
2013-11-29,54.6,36.7,22.5,31.2,25.7,19.0,91,68,39,30.62,30.48,8,0,8,0.00
2013-11-30,58.4,40.7,25.5,35.3,29.0,22.7,93,67,34,30.50,30.27,10,0,10,0.00
2013-12-1,58.5,46.1,35.7,44.9,37.0,30.5,87,71,52,30.27,29.97,6,0,6,0.11
2013-12-2,62.1,53.9,47.6,54.6,50.0,44.2,94,87,74,29.97,29.75,3,0,5,0.00
2013-12-3,61.1,56.5,53.8,59.0,53.8,51.8,95,91,85,29.81,29.73,7,0,7,0.00
2013-12-4,75.2,67.0,60.3,63.8,61.9,58.6,96,84,66,29.87,29.75,14,0,14,0.00
2013-12-5,69.3,54.5,36.8,66.9,51.7,34.7,93,90,83,30.13,29.86,14,2,14,0.87
2013-12-6,36.9,34.6,29.1,34.8,32.5,26.3,93,92,89,30.43,30.04,14,2,14,1.40
2013-12-7,31.2,28.6,27.0,28.9,25.2,23.4,91,87,84,30.56,30.31,14,2,14,0.00
2013-12-8,40.0,35.3,31.2,38.4,33.4,28.9,94,93,91,30.33,30.09,6,0,6,0.26
2013-12-9,37.0,34.3,31.8,35.2,31.5,29.0,100,90,78,30.29,30.15,9,1,9,0.10
2013-12-10,39.2,31.5,25.6,30.7,26.2,22.5,90,81,65,30.45,30.18,7,0,7,0.02
2013-12-11,47.7,31.3,20.6,35.1,25.1,17.8,93,79,48,30.60,30.43,11,0,11,0.01
2013-12-12,39.9,29.4,21.6,24.3,19.0,14.1,84,67,39,30.66,30.44,8,0,8,0.00
2013-12-13,49.9,34.9,19.7,36.0,24.5,16.7,91,69,35,30.45,30.00,6,0,8,0.15
2013-12-14,47.0,41.6,36.8,45.4,38.7,31.8,94,89,81,30.11,29.83,15,2,15,0.78
2013-12-15,36.8,33.7,27.2,32.0,28.9,24.2,92,82,75,30.30,30.11,13,2,13,0.00
2013-12-16,58.0,41.0,27.9,40.0,32.8,25.5,93,75,48,30.27,30.15,7,0,7,0.01
2013-12-17,60.4,44.2,32.0,41.7,34.8,27.8,89,71,47,30.33,30.15,15,1,15,0.00
2013-12-18,54.5,39.5,24.3,33.3,28.6,21.5,93,68,39,30.41,30.21,7,0,7,0.00
2013-12-19,64.5,52.1,39.3,51.0,41.9,32.2,83,69,57,30.24,30.04,10,0,10,0.00
2013-12-20,65.5,60.8,56.6,61.8,56.0,46.5,90,84,69,30.05,29.88,11,0,11,0.01
2013-12-21,75.3,69.0,61.1,67.1,63.4,59.2,94,83,70,29.89,29.56,26,1,26,1.63
2013-12-22,60.9,56.3,42.3,59.2,53.4,37.3,94,90,81,30.20,29.70,13,1,13,0.19
2013-12-23,42.4,36.2,28.6,37.6,29.0,23.7,83,75,64,30.52,30.19,14,2,14,0.00
2013-12-24,34.7,28.8,23.8,24.0,19.1,14.7,86,68,45,30.63,30.47,6,1,10,0.00
2013-12-25,47.2,32.4,19.0,27.0,20.3,15.2,87,64,32,30.49,30.35,5,0,5,0.00
2013-12-26,47.1,34.7,24.9,32.0,25.5,21.1,92,71,45,30.48,30.38,7,0,7,0.00
2013-12-27,53.3,35.7,22.2,31.7,25.1,19.0,95,69,36,30.53,30.40,5,0,5,0.00
2013-12-28,45.6,37.4,29.3,40.2,33.8,24.9,93,87,73,30.41,30.00,7,0,7,0.48
2013-12-29,56.0,44.8,38.0,44.7,40.1,32.3,100,85,62,30.19,29.96,12,1,12,0.18
2013-12-30,37.9,33.5,30.7,32.5,27.9,25.7,83,80,76,30.37,30.18,10,1,10,0.00
2013-12-31,44.2,32.3,23.3,31.4,25.7,20.2,91,77,56,30.51,30.36,5,0,5,0.00
2014-1-1,52.3,37.6,21.6,42.0,30.3,18.7,98,76,52,30.38,30.00,9,0,9,0.05
2014-1-2,48.3,34.0,22.5,46.7,28.4,13.2,94,80,64,30.44,29.88,20,3,20,0.32